This is the latest recevied weather packets stored in our database for station/object N2QDK-2. If no packets are shown the sender has not sent any weather packets the latest 10 day(s).
| Time | Temp. | Humidity | Pressure | Rain* | Wind** | Luminosity | Snow |
|---|---|---|---|---|---|---|---|
| 1777653316 | 8.89° C | 66% | 1012.7 hPa | 0 mm | - | - | - |
| 1777652716 | 8.89° C | 68% | 1012.7 hPa | 0 mm | - | - | - |
| 1777652116 | 8.89° C | 65% | 1012.8 hPa | 0 mm | - | - | - |
| 1777651516 | 8.89° C | 65% | 1012.8 hPa | 0 mm | - | - | - |
| 1777650916 | 9.44° C | 65% | 1012.9 hPa | 0 mm | - | - | - |
| 1777650316 | 9.44° C | 64% | 1012.8 hPa | 0 mm | - | - | - |
| 1777649716 | 10° C | 62% | 1012.8 hPa | 0 mm | - | - | - |
| 1777649116 | 10.56° C | 59% | 1012.8 hPa | 0 mm | - | - | - |
| 1777648516 | 10.56° C | 58% | 1012.8 hPa | 0 mm | - | - | - |
| 1777647916 | 10° C | 58% | 1012.8 hPa | 0 mm | - | - | - |
| 1777647316 | 10° C | 60% | 1013 hPa | 0 mm | - | - | - |
| 1777646716 | 10° C | 59% | 1013.2 hPa | 0 mm | - | - | - |
| 1777646116 | 9.44° C | 62% | 1013 hPa | 0 mm | - | - | - |
| 1777645516 | 9.44° C | 61% | 1012.9 hPa | 0 mm | - | - | - |
| 1777644916 | 9.44° C | 64% | 1013 hPa | 0 mm | - | - | - |
| 1777644315 | 9.44° C | 63% | 1013.1 hPa | 0 mm | - | - | - |
| 1777643716 | 8.33° C | 65% | 1013.2 hPa | 0 mm | - | - | - |
| 1777643116 | 8.33° C | 64% | 1013.3 hPa | 0 mm | - | - | - |
| 1777642516 | 8.33° C | 65% | 1013.2 hPa | 0 mm | - | - | - |
| 1777641916 | 7.78° C | 67% | 1013.2 hPa | 0 mm | - | - | - |
| 1777641316 | 7.78° C | 66% | 1013.4 hPa | 0 mm | - | - | - |
| 1777640716 | 7.78° C | 69% | 1013.5 hPa | 0 mm | - | - | - |
| 1777640119 | 7.22° C | 69% | 1013.5 hPa | 0 mm | - | - | - |
| 1777639517 | 7.22° C | 70% | 1013.4 hPa | 0 mm | - | - | - |
| 1777638918 | 7.22° C | 70% | 1013.5 hPa | 0 mm | - | - | - |
* Rain latest hour (hover to see other rain measurements)
** Current wind speed in m/s (hover to see current wind gust speed)